Weather observations for the past three days for
Napa, Napa County Airport
Imperial (Metric)
Date Time (pdt) Wind (mph) Vis. (mi.) Weather Sky Cond. Temperature (ºF) Relative Humidity Wind Chill (°F) Heat Index (°F) Pressure Precipitation (in)
Air Dwpt 6 hour altimeter (in) sea level (mb) 1 hr 3 hr 6 hr
Max. Min.
12 08:54 SW 5 10.00 Fair CLR 69.1 57 66% 29.86 1010.2
12 07:54 SW 5 10.00 Fair CLR 66 57.9 75% 29.85 1010.0
12 06:54 Calm 7.00 Fair CLR 62.1 57.9 86% 29.84 1009.6
12 05:54 S 3 9.00 Fair CLR 62.1 57 84% 29.83 1009.3
12 04:54 Calm 9.00 Fair CLR 62.1 57.9 66 61 86% 29.82 1009.0
12 03:54 S 3 9.00 Fair CLR 62.1 59 90% 29.82 1008.9
12 02:54 Calm 10.00 Fair CLR 63 59 87% 29.82 1008.9
12 01:54 SE 3 10.00 Fair CLR 64 57.9 81% 29.83 1009.1
12 00:54 S 3 10.00 Fair CLR 63 57 81% 29.83 1009.3
11 23:54 S 3 10.00 Fair CLR 64.9 57 76% 29.84 1009.6
11 22:54 S 5 10.00 Fair CLR 66 57.9 91 66 75% 29.84 1009.6
11 21:54 S 8 10.00 Fair CLR 68 57.9 70% 29.83 1009.4
11 20:54 S 7 10.00 Fair CLR 71.1 59 66% 29.81 1008.6
11 19:54 S 12 10.00 Fair CLR 75.9 60.1 58% 78 29.8 1008.2
11 18:54 S 15 10.00 Fair CLR 81 60.1 49% 82 29.78 1007.7
11 17:54 S 12 10.00 Fair CLR 87.1 61 42% 87 29.77 1007.3
11 16:54 S 14 10.00 Fair CLR 91 62.1 96.1 79 38% 92 29.78 1007.6
11 15:54 SW 9 10.00 Fair CLR 93.9 62.1 35% 95 29.79 1007.9
11 14:54 S 7 10.00 Fair CLR 93.9 64.9 38% 96 29.81 1008.5
11 13:54 SW 8 10.00 Fair CLR 93 64 38% 95 29.83 1009.2
11 12:54 SW 7 10.00 Fair CLR 90 57.9 34% 89 29.85 1009.8
11 11:54 SW 6 10.00 Fair CLR 84 61 46% 84 29.86 1010.2
11 10:54 Vrbl 6 10.00 Fair CLR 79 62.1 79 54 56% 80 29.86 1010.3
11 09:54 S 6 10.00 Fair CLR 73.9 62.1 67% 29.87 1010.6
11 08:54 SW 3 10.00 Fair CLR 70 62.1 76% 29.87 1010.8
11 07:54 Calm 9.00 Fair CLR 66 61 84% 29.86 1010.4
11 06:54 Calm 8.00 Fair CLR 59 57 93% 29.85 1009.9
11 05:54 SE 3 10.00 Fair CLR 57 54 90% 29.85 1009.8
11 04:54 Calm 9.00 Fair CLR 57.9 55 64.9 55.9 90% 29.84 1009.7
11 03:54 SE 5 10.00 Fair CLR 59 55 87% 29.84 1009.7
11 02:54 SE 3 10.00 Fair CLR 60.1 55.9 86% 29.85 1009.9
11 01:54 SE 5 10.00 Fair CLR 61 57 87% 29.85 1009.9
11 00:54 S 5 10.00 Fair CLR 62.1 57.9 86% 29.85 1009.8
10 23:54 S 3 10.00 Fair CLR 63 59 87% 29.84 1009.7
10 22:54 Calm 10.00 Fair CLR 64.9 60.1 86 64 84% 29.84 1009.6
10 21:54 S 6 10.00 Fair CLR 66 61 84% 29.83 1009.4
10 20:54 S 3 10.00 Fair CLR 70 60.1 71% 29.82 1008.8
10 19:54 S 5 10.00 Fair CLR 75.9 62.1 62% 78 29.81 1008.5
10 18:54 S 10 10.00 Fair CLR 80.1 61 52% 81 29.8 1008.4
10 17:54 S 9 10.00 Fair CLR 84.9 61 45% 85 29.81 1008.5
10 16:54 S 9 10.00 Fair CLR 86 62.1 86 64 45% 87 29.82 1008.9
10 15:54 S 12 10.00 Fair CLR 84 62.1 48% 85 29.83 1009.5
10 14:54 SW 8 10.00 Fair CLR 84.9 64 50% 86 29.85 1010.0
10 13:54 S 6 10.00 Fair CLR 82.9 63 51% 84 29.87 1010.6
10 12:54 Vrbl 6 10.00 Fair CLR 75.9 61 60% 78 29.88 1011.1
10 11:54 Vrbl 5 10.00 Fair CLR 70 60.1 71% 29.9 1011.6
10 10:54 W 3 10.00 Mostly Cloudy BKN006 64 57.9 64 57 81% 29.91 1012.0
10 09:54 SW 5 6.00 Overcast OVC004 61 57 87% 29.91 1012.0
10 08:54 W 5 6.00 Fog/Mist OVC002 59 57.9 96% 29.91 1011.9
10 07:54 NW 5 2.00 Fog/Mist OVC002 57.9 57 97% 29.9 1011.5
10 06:54 NW 5 2.50 Fog/Mist OVC002 57.9 57 97% 29.88 1011.1
10 05:54 NW 6 10.00 Overcast OVC003 57 55.9 96% 29.87 1010.7
10 04:54 NW 6 10.00 Overcast OVC003 57.9 55.9 59 55.9 93% 29.86 1010.4
10 03:54 NW 7 10.00 Overcast OVC004 57.9 55.9 93% 29.86 1010.3
10 02:54 W 6 10.00 Overcast OVC005 59 57 93% 29.86 1010.2
10 01:54 W 7 10.00 Overcast OVC006 59 57 93% 29.87 1010.5
10 00:54 NW 5 10.00 Overcast OVC009 57.9 55.9 93% 29.87 1010.7
09 23:54 NW 3 10.00 Fair CLR 57 55 93% 29.87 1010.7
09 22:54 NW 3 10.00 Fair CLR 57.9 55 73.9 57.9 90% 29.88 1010.8
09 21:54 W 6 10.00 Fair CLR 60.1 55.9 86% 29.87 1010.7
09 20:54 SW 8 10.00 Fair CLR 63 57 81% 29.85 1009.9
09 19:54 S 13 10.00 Fair CLR 66.9 60.1 79% 29.83 1009.4
09 18:54 S 15 10.00 Fair CLR 70 60.1 71% 29.82 1009.0
09 17:54 S 17 10.00 Fair CLR 72 60.1 66% 29.82 1009.0
09 16:54 S 17 10.00 Fair CLR 73.9 61 77 64.9 64% 29.83 1009.4
09 15:54 S 14 10.00 Fair CLR 75 61 62% 77 29.84 1009.6
09 14:54 S 13 10.00 Fair CLR 75 60.1 60% 77 29.85 1010.0
09 13:54 S 13 10.00 Fair CLR 75 60.1 60% 77 29.86 1010.4
09 12:54 S 9 10.00 Fair CLR 72 60.1 66% 29.87 1010.6
09 11:54 SW 9 0.00 NULL NULL 71.1 57.9 63% 29.87 1010.7
09 10:54 W 8 10.00 Mostly Cloudy BKN012 64.9 55.9 64.9 57.9 73% 29.88 1010.8
09 09:54 W 5 10.00 Overcast OVC009 62.1 55.9 80% 29.88 1010.9
Date Time (pdt) Wind (mph) Vis. (mi.) Weather Sky Cond. Air Dwpt Max. Min. Relative Humidity Wind Chill (°F) Heat Index (°F) altimeter (in) sea level (mb) 1 hr 3 hr 6 hr
6 hour
Temperature (ºF) Pressure Precipitation (in)